Date String (YYYY-MM-DD hh:mm:ss) UTC,Instrument flags,absolute air pressure of the measurement (hPa),sample flow rate (lpm),inlet stack bypass flow (lpm),air temperature of the measurement (°C),ambient temperature measured by the external sensor (°C),aerosol sample conditioner tube jacket temperature (°C),OPC LED temperature (°C),internal box temperature (°C),relative humidity of the measurement (%),span deviation,mass concentration of particles derived from Lorenz-Mie calculation of OPC scattering (μg/m³),mass concentration of particles derived from Lorenz-Mie calculation of OPC scattering (μg/m³),mass concentration of particles derived from Lorenz-Mie calculation of OPC scattering (μg/m³)
DateTimeUTC,F1_M11,P_M11,Q1_M11,Q2_M11,T1_M11,T2_M11,T3_M11,T4_M11,T5_M11,U1_M11,ZSPAN_M11,X0_M11,X2_M11,X1_M11
2023-07-25 08:00:00,SystemResetWarning,0833.6,4.99,000.00,029.3,028.0,000.0,037.6,031.0,26.7,0000.0,0011.47,0006.25,0005.45
2023-07-25 08:01:00,SystemResetWarning,0833.5,4.99,000.00,029.3,026.5,000.0,037.5,030.8,26.6,0000.0,0011.48,0006.26,0005.45
2023-07-25 08:02:00,SystemResetWarning,0833.5,5.00,000.00,029.2,025.5,000.0,037.4,030.6,26.5,0000.0,0010.83,0006.26,0005.46
2023-07-25 08:03:00,SystemResetWarning,0833.4,5.01,000.00,029.1,025.5,000.0,037.4,030.4,27.1,0000.0,0010.59,0006.28,0005.48
2023-07-25 08:04:00,SystemResetWarning,0833.4,5.01,000.00,029.0,025.8,000.0,037.4,030.4,27.7,0000.0,0011.00,0006.33,0005.51
2023-07-25 08:05:00,SystemResetWarning,0833.4,4.99,000.00,029.0,026.2,000.0,037.5,030.4,26.7,0000.0,0011.09,0006.39,0005.53
2023-07-25 08:06:00,SystemResetWarning,0833.4,5.00,000.00,029.0,026.5,000.0,037.5,030.5,27.1,0000.0,0010.97,0006.38,0005.55
2023-07-25 08:07:00,SystemResetWarning,0833.4,5.01,000.00,029.0,026.9,000.0,037.5,030.6,27.2,0000.0,0010.99,0006.41,0005.55
2023-07-25 08:08:00,SystemResetWarning,0833.4,5.01,000.00,029.1,027.2,000.0,037.5,030.7,26.7,0000.0,0011.22,0006.38,0005.54
2023-07-25 08:09:00,SystemResetWarning,0833.5,5.00,000.00,029.1,027.4,000.0,037.5,030.7,26.8,0000.0,0012.34,0006.38,0005.55
2023-07-25 08:10:00,SystemResetWarning,0833.5,5.00,000.00,029.1,027.6,000.0,037.5,030.8,27.0,0000.0,0013.21,0006.40,0005.56
2023-07-25 08:11:00,SystemResetWarning,0833.6,4.99,000.00,029.2,027.8,000.0,037.6,030.9,26.9,0000.0,0013.68,0006.39,0005.55
2023-07-25 08:12:00,SystemResetWarning,0833.6,5.00,000.00,029.2,028.0,000.0,037.6,030.9,26.5,0000.0,0014.70,0006.42,0005.56
2023-07-25 08:13:00,SystemResetWarning,0833.6,5.00,000.00,029.3,028.1,000.0,037.6,031.0,26.6,0000.0,0014.77,0006.40,0005.56
2023-07-25 08:14:00,SystemResetWarning,0833.7,5.00,000.00,029.3,028.0,000.0,037.6,031.0,26.6,0000.0,0014.68,0006.40,0005.56
2023-07-25 08:15:00,SystemResetWarning,0833.7,4.99,000.00,029.3,026.4,000.0,037.5,030.8,26.6,0000.0,0014.55,0006.38,0005.54
2023-07-25 08:16:00,SystemResetWarning,0833.7,5.01,000.00,029.2,025.5,000.0,037.4,030.6,27.4,0000.0,0014.82,0006.32,0005.51
2023-07-25 08:17:00,SystemResetWarning,0833.7,5.01,000.00,029.1,025.6,000.0,037.4,030.4,28.9,0000.0,0015.13,0006.29,0005.50
2023-07-25 08:18:00,SystemResetWarning,0833.6,5.00,000.00,029.0,025.9,000.0,037.5,030.4,28.7,0000.0,0015.08,0006.23,0005.50
2023-07-25 08:19:00,SystemResetWarning,0833.6,5.00,000.00,029.0,026.3,000.0,037.5,030.5,28.7,0000.0,0014.76,0006.19,0005.50
2023-07-25 08:20:00,SystemResetWarning,0833.6,5.00,000.00,029.0,026.7,000.0,037.5,030.6,28.8,0000.0,0013.86,0006.17,0005.49
2023-07-25 08:21:00,SystemResetWarning,0833.6,5.00,000.00,029.1,027.0,000.0,037.5,030.7,28.6,0000.0,0012.54,0006.12,0005.48
2023-07-25 08:22:00,SystemResetWarning,0833.6,5.00,000.00,029.1,027.2,000.0,037.5,030.7,28.7,0000.0,0012.28,0006.14,0005.49
2023-07-25 08:23:00,SystemResetWarning,0833.5,5.00,000.00,029.1,027.5,000.0,037.5,030.8,28.7,0000.0,0011.59,0006.13,0005.47
2023-07-25 08:24:00,SystemResetWarning,0833.5,4.99,000.00,029.1,027.7,000.0,037.6,030.8,28.5,0000.0,0011.58,0006.15,0005.46
2023-07-25 08:25:00,SystemResetWarning,0833.5,5.00,000.00,029.2,027.8,000.0,037.6,030.9,28.1,0000.0,0011.59,0006.15,0005.45
2023-07-25 08:26:00,SystemResetWarning,0833.5,5.01,000.00,029.2,028.0,000.0,037.6,030.9,28.4,0000.0,0011.49,0006.17,0005.45
2023-07-25 08:27:00,SystemResetWarning,0833.5,5.00,000.00,029.3,028.1,000.0,037.6,031.0,28.5,0000.0,0011.02,0006.17,0005.45
2023-07-25 08:28:00,SystemResetWarning,0833.6,5.00,000.00,029.3,028.2,000.0,037.6,031.0,28.3,0000.0,0010.97,0006.19,0005.45
2023-07-25 08:29:00,SystemResetWarning,0833.6,4.98,000.00,029.3,027.0,000.0,037.6,030.9,28.4,0000.0,0011.30,0006.20,0005.45
2023-07-25 08:30:00,SystemResetWarning,0833.6,5.01,000.00,029.2,025.6,000.0,037.5,030.7,28.9,0000.0,0011.79,0006.19,0005.43
2023-07-25 08:31:00,SystemResetWarning,0833.6,5.01,000.00,029.2,025.4,000.0,037.4,030.5,29.2,0000.0,0011.71,0006.16,0005.42
2023-07-25 08:32:00,SystemResetWarning,0833.6,5.01,000.00,029.1,025.7,000.0,037.4,030.4,28.8,0000.0,0011.83,0006.19,0005.41
2023-07-25 08:33:00,SystemResetWarning,0833.6,4.99,000.00,029.0,026.1,000.0,037.5,030.5,29.0,0000.0,0012.19,0006.17,0005.38
2023-07-25 08:34:00,SystemResetWarning,0833.7,5.00,000.00,029.0,026.5,000.0,037.5,030.5,28.8,0000.0,0012.13,0006.16,0005.36
2023-07-25 08:35:00,SystemResetWarning,0833.7,5.00,000.00,029.1,026.8,000.0,037.5,030.6,28.3,0000.0,0012.30,0006.17,0005.35
2023-07-25 08:36:00,SystemResetWarning,0833.7,5.00,000.00,029.1,027.1,000.0,037.5,030.7,28.5,0000.0,0012.99,0006.22,0005.34
2023-07-25 08:37:00,SystemResetWarning,0833.7,5.01,000.00,029.1,027.3,000.0,037.6,030.7,28.7,0000.0,0013.94,0006.22,0005.32
2023-07-25 08:38:00,SystemResetWarning,0833.7,4.99,000.00,029.1,027.5,000.0,037.6,030.8,28.4,0000.0,0015.34,0006.28,0005.31
2023-07-25 08:39:00,SystemResetWarning,0833.7,4.99,000.00,029.2,027.7,000.0,037.6,030.8,28.1,0000.0,0016.38,0006.39,0005.31
2023-07-25 08:40:00,SystemResetWarning,0833.7,5.00,000.00,029.2,027.9,000.0,037.6,030.9,27.8,0000.0,0016.37,0006.46,0005.30
2023-07-25 08:41:00,SystemResetWarning,0833.7,5.00,000.00,029.2,028.0,000.0,037.6,030.9,27.7,0000.0,0016.59,0006.50,0005.28
2023-07-25 08:42:00,SystemResetWarning,0833.7,5.00,000.00,029.3,028.1,000.0,037.6,031.0,27.6,0000.0,0017.14,0006.51,0005.29
2023-07-25 08:43:00,SystemResetWarning,0833.7,5.01,000.00,029.3,028.2,000.0,037.7,031.0,27.6,0000.0,0018.09,0006.53,0005.29
2023-07-25 08:44:00,SystemResetWarning,0833.7,4.99,000.00,029.3,027.8,000.0,037.7,031.0,27.4,0000.0,0020.14,0006.58,0005.29
2023-07-25 08:45:00,SystemResetWarning,0833.7,4.99,000.00,029.3,026.1,000.0,037.5,030.8,27.3,0000.0,0020.33,0006.60,0005.30
2023-07-25 08:46:00,SystemResetWarning,0833.7,5.01,000.00,029.2,025.4,000.0,037.5,030.6,27.6,0000.0,0020.33,0006.61,0005.30
2023-07-25 08:47:00,SystemResetWarning,0833.7,5.00,000.00,029.1,025.5,000.0,037.5,030.4,27.7,0000.0,0019.89,0006.55,0005.30
2023-07-25 08:48:00,SystemResetWarning,0833.8,4.98,000.00,029.1,025.8,000.0,037.5,030.4,27.8,0000.0,0019.27,0006.57,0005.30
2023-07-25 08:49:00,SystemResetWarning,0833.8,5.00,000.00,029.1,026.2,000.0,037.5,030.5,27.8,0000.0,0018.20,0006.53,0005.29
2023-07-25 08:50:00,SystemResetWarning,0833.8,5.01,000.00,029.1,026.6,000.0,037.6,030.6,27.9,0000.0,0016.99,0006.40,0005.27
2023-07-25 08:51:00,SystemResetWarning,0833.8,5.01,000.00,029.1,026.9,000.0,037.6,030.7,28.0,0000.0,0016.95,0006.34,0005.27
2023-07-25 08:52:00,SystemResetWarning,0833.8,4.99,000.00,029.1,027.2,000.0,037.6,030.7,28.2,0000.0,0016.52,0006.31,0005.26
2023-07-25 08:53:00,SystemResetWarning,0833.8,5.00,000.00,029.1,027.5,000.0,037.6,030.8,28.3,0000.0,0015.94,0006.33,0005.27
2023-07-25 08:54:00,SystemResetWarning,0833.8,5.00,000.00,029.2,027.7,000.0,037.6,030.9,28.2,0000.0,0015.40,0006.36,0005.28
2023-07-25 08:55:00,SystemResetWarning,0833.9,5.00,000.00,029.2,027.9,000.0,037.6,030.9,28.2,0000.0,0013.24,0006.28,0005.27
2023-07-25 08:56:00,SystemResetWarning,0833.8,5.00,000.00,029.2,028.0,000.0,037.6,030.9,28.2,0000.0,0012.72,0006.26,0005.26
2023-07-25 08:57:00,SystemResetWarning,0834.0,5.00,000.00,029.3,028.1,000.0,037.7,031.0,28.1,0000.0,0012.95,0006.27,0005.27
2023-07-25 08:58:00,SystemResetWarning,0833.9,5.01,000.00,029.3,028.2,000.0,037.7,031.0,28.0,0000.0,0013.07,0006.27,0005.27
2023-07-25 08:59:00,SystemResetWarning,0834.0,5.00,000.00,029.4,027.8,000.0,037.7,031.0,28.0,0000.0,0013.38,0006.25,0005.26
